Hourly Weather Roundup
Issued by NWS Central Illinois

Home | Current Version | Previous Version | Text Only | Print | Product List | Glossary On
Versions: 1 2 3 4 5 6 7 8 9 10 11 12 13 14 15 16 17 18 19 20 21 22 23 24 25 26 27 28 29 30 31 32 33 34 35 36 37 38 39 40 41 42 43 44 45 46 47 48 49 50
000
NZUS43 KILX 051710
HWRILX

AREA WEATHER ROUNDUP
NATIONAL WEATHER SERVICE, LINCOLN IL
1200 PM CDT THU MAY 05 2016


CITY           SKY/WX    TMP DP  RH WIND       PRES   REMARKS
BLOOMINGTON    MOSUNNY   57  47  69 N16       30.02S
CHAMPAIGN      SUNNY     60  45  57 N15       29.98S
DANVILLE       MOSUNNY   55  46  70 N12       29.95S
DECATUR        MOSUNNY   59  46  62 N15G23    30.01R
EFFINGHAM      CLOUDY    53  46  76 NW10      30.02R
FLORA          CLOUDY    56  45  65 N15       30.00R
GALESBURG      SUNNY     58  40  51 N9        30.06S
JACKSONVILLE   SUNNY     59  40  50 N9G17     30.05S
LACON          SUNNY     56  43  61 N6        30.04S
LAWRENCEVILLE  CLOUDY    53  44  71 N18       29.97R
LITCHFIELD     PTSUNNY   55  43  63 N14       30.03S
$$


CITY           SKY/WX    TMP DP  RH WIND       PRES   REMARKS
LINCOLN        SUNNY     58  47  65 N8G17     30.02F
MACOMB         SUNNY     58  39  49 N6        30.08F
MATTOON        PTSUNNY   56  45  66 N15       29.98S
MT CARMEL AP   CLOUDY    54  43  66 N17       29.96R
OLNEY-NOBLE AP CLOUDY    52  43  71 N13G18    29.99S
PARIS          MOSUNNY   55  47  74 N6        29.98S
PEORIA         SUNNY     57  42  57 N9G18     30.04S
PONTIAC        SUNNY     59  46  62 N13G21    30.02R
RANTOUL        SUNNY     60  46  60 N16G24    29.98S
ROBINSON       PTSUNNY   52  46  79 N14       29.98R
SPRINGFIELD    SUNNY     59  43  55 N14       30.04S
TAYLORVILLE    MOSUNNY   56  44  64 N14       30.02S
$$

...REGIONAL REPORTS...


CITY           SKY/WX    TMP DP  RH WIND       PRES   REMARKS
CHICAGO O`HARE SUNNY     58  42  55 N12       30.01S
KANKAKEE       SUNNY     58  44  58 N13       30.00S
MOLINE         SUNNY     59  38  45 NE6       30.06F
MOUNT STERLING SUNNY     58  39  50 N12       30.06S
MOUNT VERNON   CLOUDY    55  43  62 N6        30.01R
PITTSFIELD     SUNNY     59  41  52 N10       30.07S
QUINCY         SUNNY     58  41  53 N9        30.07S
ROCKFORD       SUNNY     59  40  49 N10       30.06S
$$


CITY           SKY/WX    TMP DP  RH WIND       PRES   REMARKS
BURLINGTON     SUNNY     59  43  55 N10       30.07S
CEDAR RAPIDS   SUNNY     59  40  49 NW5       30.07F
DES MOINES     MOSUNNY   64  32  30 CALM      30.10F
KIRKSVILLE     SUNNY     63  37  38 N9        30.10R
OTTUMWA        SUNNY     61  35  37 N8        30.10R
ST LOUIS       MOSUNNY   61  39  44 N16G22    30.05R
$$


CITY           SKY/WX    TMP DP  RH WIND       PRES   REMARKS
TERRE HAUTE    PTSUNNY   53  44  71 N8        29.96S
EVANSVILLE     CLOUDY    55  41  59 N9        29.95S
INDIANAPOLIS   CLOUDY    50  45  83 NW13      29.91R
LAFAYETTE      CLOUDY    50  43  77 N13       29.96S
MADISON        SUNNY     58  39  49 VRB6      30.04F
MILWAUKEE      SUNNY     53  39  59 N12G21    30.04S
$$






USA.gov is the U.S. government's official web portal to all federal, state and local government web resources and services.